Location: ???????
(37.9763°N, 23.8889°E)
Time: 15:29:11
(UTC+00:00)

YAOGAN 6 - Visible Passes

Search period start: 08 September 2024 00:00
Search period end: 18 September 2024 00:00
Orbit: 398 x 416 km, 97.2° (Epoch: 08 September)

Date Brightness Start Highest point End Pass type
(mag) Time Alt. Az. Time Alt. Az. Time Alt. Az.
08 Sep 4.0 01:48:52 10° NNE 01:51:07 32° ENE 01:51:07 32° ENE visible
09 Sep 2.9 02:32:43 10° N 02:35:17 36° NW 02:35:17 36° NW visible
10 Sep 4.4 01:44:42 10° NNE 01:46:38 26° ENE 01:46:38 26° ENE visible
11 Sep 3.0 02:28:14 10° N 02:30:37 38° NW 02:30:37 38° NW visible
12 Sep 4.8 01:40:14 10° NE 01:41:46 21° ENE 01:41:46 21° ENE visible
12 Sep 4.4 03:13:36 10° NW 03:14:31 11° WNW 03:14:31 11° WNW visible
13 Sep 3.1 02:23:25 10° N 02:25:35 37° NNW 02:25:35 37° NNW visible
14 Sep 5.2 01:35:26 10° NE 01:36:35 17° ENE 01:36:35 17° ENE visible
14 Sep 4.3 03:08:09 10° NW 03:09:18 13° WNW 03:09:18 13° WNW visible
15 Sep 3.4 02:18:16 10° N 02:20:12 34° N 02:20:12 34° N visible
16 Sep 5.5 01:30:20 10° NE 01:31:02 14° NE 01:31:02 14° NE visible
16 Sep 4.2 03:02:31 10° NNW 03:03:45 14° NW 03:03:45 14° NW visible
17 Sep 3.8 02:12:48 10° N 02:14:28 29° N 02:14:28 29° N visible
